Regional Weather Roundup
Issued by NWS

Home | Current Version | Previous Version | Graphics & Text | Print | Product List | Glossary On
Versions: 1 2 3 4 5 6 7 8 9 10 11 12 13 14 15 16 17 18 19 20 21 22 23 24 25 26 27 28 29 30 31 32 33 34 35 36 37 38 39 40 41 42 43 44 45 46 47 48 49 50
000
ASUS43 KLOT 231502
RWRIL

ILLINOIS REGIONAL WEATHER ROUNDUP
NATIONAL WEATHER SERVICE CHICAGO/ROMEOVILLE IL
1000 AM CDT THU MAR 23 2017

NOTE: "FAIR" INDICATES FEW OR NO CLOUDS BELOW 12,000 FEET WITH NO
SIGNIFICANT WEATHER AND/OR OBSTRUCTIONS TO VISIBILITY.

* THESE STATIONS ARE NOT UNDER NWS QUALITY CONTROL. THEY ALSO MAY NOT
  REPORT WEATHER SUCH AS PRECIPITATION OR FOG.

ILZ001-002-007-009-015-016-024-231600-
NORTHWEST ILLINOIS

CITY           SKY/WX    TMP DP  RH WIND       PRES   REMARKS
MOLINE         CLOUDY    39  23  52 SE12      30.27F WCI  32
STERLING*      PTSUNNY   38  24  57 SE14      30.32F WCI  30
SAVANNA*       CLOUDY    38  24  55 SE16G22   30.30F WCI  30
$$

ILZ003-004-008-010-011-017-018-231600-
NORTH CENTRAL ILLINOIS

CITY           SKY/WX    TMP DP  RH WIND       PRES   REMARKS
ROCKFORD       PTSUNNY   38  21  50 S16G23    30.36F WCI  29
FREEPORT*      MOSUNNY   37  23  57 SE18      30.33F WCI  26
ROCHELLE*      CLOUDY    38  23  55 SE21      30.35F WCI  27
DE KALB*       CLOUDY    36  23  59 SE18      30.36F WCI  25
PERU*          SUNNY     36  23  60 SE18      30.35F WCI  25
$$

ILZ005-006-012>014-019>023-231600-
NORTHEAST ILLINOIS

CITY           SKY/WX    TMP DP  RH WIND       PRES   REMARKS
CHICAGO-OHARE  CLOUDY    36  19  50 SE14      30.39F WCI  27
CHICAGO-MIDWAY CLOUDY    35  19  52 SE10G21   30.40F WCI  27
AURORA         CLOUDY    37  22  54 SE16      30.37F WCI  28
LANSING*       CLOUDY    33  22  64 SE9       30.41F WCI  26
JOLIET*        CLOUDY    36  23  59 S12       30.39F WCI  28
WAUKEGAN       CLOUDY    34  23  64 SE14G22   30.38F WCI  25
DUPAGE AIRPORT CLOUDY    37  22  54 S14       30.37F WCI  28
KANKAKEE*      CLOUDY    35  23  60 SE14      30.40F WCI  26
WHEELING       CLOUDY    35  20  54 SE13      30.40F WCI  26
MORRIS*        CLOUDY    37  23  58 SE13      30.37F WCI  28
ROMEOVILLE*    CLOUDY    35  26  69 S15       30.38F WCI  25
NORTHERLY ISL    N/A     35  21  57 SE8         N/A  WCI  29
$$

LMZ740>746-231600-
SOUTHERN LAKE MICHIGAN

STATION/POSITION SKY/WX   TEMP    WIND        PRES    VSBY  WAVE
                          AIR SEA DIR/SP/G                  HT/PER
                          (F)     (DEG/KT/KT) (MB)    (MI)  (FT/S)
HARRISON CRIB              34     150/ 18/ 21   N/A
BURNHAM HARBOR             35     110/  8/ 14   N/A
CALUMET HARBOR             33     150/  8/ 14 1029.1S
BURNS HARBOR               33     130/  7/ 13 1030.1S
MICHIGAN CITY              32     120/ 11/ 16   N/A
$$

ILZ025>027-034>036-040-047-049-050-058-095>099-231600-
WEST-CENTRAL ILLINOIS

CITY           SKY/WX    TMP DP  RH WIND       PRES   REMARKS
QUINCY         LGT RAIN  37  33  85 SE16      30.24F WCI  28
GALESBURG*     DRIZZLE   35  29  80 SE10      30.27F WCI  27
MACOMB*        CLOUDY    35  32  90 SE13      30.31S WCI  26
JACKSONVILLE*  LGT RAIN  35  32  91 SE12      30.31F WCI  26
PITTSFIELD*    CLOUDY    36  34  92 SE14      30.29F WCI  27
$$

ILZ028>032-037-038-041>044-048-051>054-059>061-231600-
CENTRAL ILLINOIS

CITY           SKY/WX    TMP DP  RH WIND       PRES   REMARKS
PONTIAC        CLOUDY    36  26  65 SE15      30.38F WCI  27
BLOOMINGTON    CLOUDY    35  22  58 SE15      30.35F WCI  25
DECATUR        CLOUDY    38  23  55 SE10      30.35F WCI  31
PEORIA         LGT RAIN  36  27  69 SE8       30.33F WCI  30
LACON*         CLOUDY    36  26  66 SE9       30.33F WCI  29
LINCOLN*       CLOUDY    38  30  73 SE13      30.34F WCI  30
SPRINGFIELD    CLOUDY    37  30  75 SE10      30.34F WCI  30
TAYLORVILLE    RAIN      35  29  78 SE10      30.35S WCI  27
$$

ILZ033-039-045-046-055>057-062-063-231600-
EAST-CENTRAL ILLINOIS

CITY           SKY/WX    TMP DP  RH WIND       PRES   REMARKS
CHAMPAIGN      MOSUNNY   39  22  50 SE14      30.38S WCI  31
RANTOUL*       CLOUDY    37  25  62 SE15      30.39S WCI  27
MATTOON        CLOUDY    38  22  52 SE12      30.36F WCI  30
PARIS*         CLOUDY    38  25  59 SE10      30.39F WCI  31
$$

ILZ079-100>102-231600-
SOUTHWEST ILLINOIS

CITY           SKY/WX    TMP DP  RH WIND       PRES   REMARKS
ALTON          CLOUDY    36  32  87 E10       30.33S WCI  28
BELLEVILLE     DRIZZLE   37  37 100 E9        30.32R WCI  31
CAHOKIA*       CLOUDY    39  33  79 SE10      30.31S WCI  32
SPARTA*        CLOUDY    35  33  90 E10       30.34S WCI  27
$$

ILZ064>066-069>071-074>076-080>082-084>086-088>090-092>094-231600-
SOUTH-CENTRAL ILLINOIS

CITY           SKY/WX    TMP DP  RH WIND       PRES   REMARKS
CARBONDALE     HVY RAIN  35  34  96 SE15      30.32F FOG     WCI  25
CAIRO*         CLOUDY    40  32  71 NE9       30.35R
EFFINGHAM*     CLOUDY   N/A N/A N/A E8        30.40R
MARION         LGT RAIN  36  36 100 E9        30.37S WCI  29
MT. VERNON     CLOUDY    36  31  82 E8        30.36F WCI  30
CENTRALIA*     CLOUDY    36  32  85 SE8G16    30.34F WCI  30
SALEM*         LGT RAIN  36  31  79 SE7       30.36R WCI  31
METROPOLIS*    CLOUDY    37  34  87 NE7       30.37R WCI  32
$$

ILZ067-068-072-073-078-083-087-091-231600-
SOUTHEAST ILLINOIS

CITY           SKY/WX    TMP DP  RH WIND       PRES   REMARKS
LAWRENCEVILLE  PTSUNNY   40  22  48 SE6       30.41R
FLORA*         CLOUDY    39  28  63 SE8       30.38F WCI  34
FAIRFIELD*     CLOUDY    37  29  70 SE3       30.36F
HARRISBURG*    LGT RAIN  35  32  89 E9        30.38F WCI  28
ROBINSON*      CLOUDY    39  22  51 SE9       30.41S WCI  32
CARMI*         LGT RAIN  38  31  74 E9        30.36F WCI  31
$$

ABBREVIATIONS USED IN REMARKS
   TC - TEMPERATURE IN CELSIUS
  WCI - WIND CHILL INDEX
   HX - HEAT INDEX
  VSB - VISIBILITY
$$




USA.gov is the U.S. government's official web portal to all federal, state and local government web resources and services.